Time,TemperatureF,DewpointF,PressureIn,WindDirection,WindDirectionDegrees,WindSpeedMPH,WindSpeedGustMPH,Humidity,HourlyPrecipIn,Conditions,Clouds,dailyrainin,SoftwareType,DateUTC
2013-02-09 00:02:00,41.0,31.0,30.01,North,0,0.0,4.0,68,0.00,,,0.73,,2013-02-09 05:02:00,
2013-02-09 00:12:00,41.0,31.0,30.01,North,0,0.0,4.0,68,0.00,,,0.73,,2013-02-09 05:12:00,
2013-02-09 00:22:00,40.0,31.0,30.01,North,0,0.0,0.0,69,0.00,,,0.69,,2013-02-09 05:22:00,
2013-02-09 00:32:00,39.0,31.0,30.01,North,0,0.0,2.0,73,0.00,,,0.66,,2013-02-09 05:32:00,
2013-02-09 00:42:00,39.0,31.0,30.01,North,0,0.0,2.0,73,0.00,,,0.66,,2013-02-09 05:42:00,
2013-02-09 00:52:00,39.0,31.0,30.01,North,0,0.0,2.0,73,0.00,,,0.66,,2013-02-09 05:52:00,
2013-02-09 01:02:00,39.0,30.0,30.01,North,0,0.0,4.0,71,0.00,,,0.63,,2013-02-09 06:02:00,
2013-02-09 01:11:00,39.0,30.0,30.01,North,0,0.0,4.0,71,0.00,,,0.63,,2013-02-09 06:11:00,
2013-02-09 01:21:00,39.0,30.0,30.01,North,0,0.0,4.0,69,0.00,,,0.62,,2013-02-09 06:21:00,
2013-02-09 01:32:00,38.0,29.0,30.02,North,0,0.0,0.0,71,0.00,,,0.58,,2013-02-09 06:32:00,
2013-02-09 01:42:00,38.0,29.0,30.02,North,0,0.0,0.0,71,0.00,,,0.58,,2013-02-09 06:42:00,
2013-02-09 01:51:00,37.0,30.0,30.03,North,0,0.0,0.0,75,0.00,,,0.57,,2013-02-09 06:51:00,
2013-02-09 02:01:00,37.0,30.0,30.03,North,0,0.0,0.0,75,0.00,,,0.57,,2013-02-09 07:01:00,
2013-02-09 02:11:00,37.0,30.0,30.03,North,0,0.0,0.0,75,0.00,,,0.57,,2013-02-09 07:11:00,
2013-02-09 02:21:00,35.0,29.0,30.04,North,0,0.0,0.0,79,0.00,,,0.53,,2013-02-09 07:21:00,
2013-02-09 02:31:00,33.0,29.0,30.03,North,0,0.0,0.0,86,0.00,,,0.49,,2013-02-09 07:31:00,
2013-02-09 02:42:00,33.0,29.0,30.03,North,0,0.0,0.0,86,0.00,,,0.49,,2013-02-09 07:42:00,
2013-02-09 02:51:00,32.0,28.0,30.03,North,0,0.0,0.0,86,0.00,,,0.47,,2013-02-09 07:51:00,
2013-02-09 03:01:00,32.0,28.0,30.03,North,0,0.0,0.0,86,0.00,,,0.47,,2013-02-09 08:01:00,
2013-02-09 03:11:00,32.0,28.0,30.03,North,0,0.0,0.0,86,0.00,,,0.47,,2013-02-09 08:11:00,
2013-02-09 03:21:00,31.0,28.0,30.03,North,0,0.0,0.0,90,0.00,,,0.43,,2013-02-09 08:21:00,
2013-02-09 03:31:00,30.0,28.0,30.04,North,0,0.0,0.0,91,0.00,,,0.39,,2013-02-09 08:31:00,
2013-02-09 03:42:00,30.0,28.0,30.04,North,0,0.0,0.0,91,0.00,,,0.39,,2013-02-09 08:42:00,
2013-02-09 03:52:00,30.0,28.0,30.04,North,0,0.0,0.0,91,0.00,,,0.37,,2013-02-09 08:52:00,
2013-02-09 04:03:00,30.0,28.0,30.04,North,0,0.0,0.0,91,0.00,,,0.37,,2013-02-09 09:03:00,
2013-02-09 04:11:00,30.0,28.0,30.04,North,0,0.0,0.0,91,0.00,,,0.37,,2013-02-09 09:11:00,
2013-02-09 04:21:00,29.0,27.0,30.05,North,0,0.0,0.0,92,0.00,,,0.33,,2013-02-09 09:21:00,
2013-02-09 04:32:00,29.0,27.0,30.06,North,0,0.0,0.0,93,0.00,,,0.29,,2013-02-09 09:32:00,
2013-02-09 04:42:00,29.0,27.0,30.06,North,0,0.0,0.0,93,0.00,,,0.29,,2013-02-09 09:42:00,
2013-02-09 04:51:00,29.0,27.0,30.07,North,0,0.0,0.0,94,0.00,,,0.28,,2013-02-09 09:51:00,
2013-02-09 05:01:00,29.0,27.0,30.08,North,0,0.0,0.0,94,0.00,,,0.26,,2013-02-09 10:01:00,
2013-02-09 05:11:00,29.0,27.0,30.08,North,0,0.0,0.0,94,0.00,,,0.26,,2013-02-09 10:11:00,
2013-02-09 05:21:00,28.0,26.0,30.09,North,0,0.0,0.0,93,0.00,,,0.25,,2013-02-09 10:21:00,
2013-02-09 05:32:00,28.0,27.0,30.10,North,0,0.0,0.0,94,0.00,,,0.22,,2013-02-09 10:32:00,
2013-02-09 05:42:00,28.0,27.0,30.10,North,0,0.0,0.0,94,0.00,,,0.22,,2013-02-09 10:42:00,
2013-02-09 05:51:00,28.0,27.0,30.10,North,0,0.0,0.0,94,0.00,,,0.20,,2013-02-09 10:51:00,
2013-02-09 06:01:00,28.0,27.0,30.10,North,0,0.0,0.0,94,0.00,,,0.20,,2013-02-09 11:01:00,
2013-02-09 06:11:00,28.0,27.0,30.10,North,0,0.0,0.0,94,0.00,,,0.20,,2013-02-09 11:11:00,
2013-02-09 06:22:00,28.0,27.0,30.12,North,0,0.0,0.0,94,0.00,,,0.18,,2013-02-09 11:22:00,
2013-02-09 06:32:00,28.0,27.0,30.13,North,0,0.0,0.0,94,0.00,,,0.15,,2013-02-09 11:32:00,
2013-02-09 06:42:00,28.0,27.0,30.13,North,0,0.0,0.0,94,0.00,,,0.15,,2013-02-09 11:42:00,
2013-02-09 06:52:00,28.0,26.0,30.13,North,0,0.0,0.0,93,0.00,,,0.14,,2013-02-09 11:52:00,
2013-02-09 07:02:00,28.0,27.0,30.14,North,0,0.0,0.0,94,0.00,,,0.13,,2013-02-09 12:02:00,
2013-02-09 07:11:00,28.0,27.0,30.14,North,0,0.0,0.0,94,0.00,,,0.13,,2013-02-09 12:11:00,
2013-02-09 07:22:00,27.0,26.0,30.15,North,0,0.0,0.0,94,0.00,,,0.12,,2013-02-09 12:22:00,
2013-02-09 07:32:00,27.0,25.0,30.17,North,0,0.0,0.0,93,0.00,,,0.10,,2013-02-09 12:32:00,
2013-02-09 07:42:00,27.0,25.0,30.17,North,0,0.0,0.0,93,0.00,,,0.10,,2013-02-09 12:42:00,
2013-02-09 07:52:00,27.0,26.0,30.18,North,0,0.0,0.0,94,0.00,,,0.09,,2013-02-09 12:52:00,
2013-02-09 08:02:00,27.0,26.0,30.18,North,0,0.0,0.0,94,0.00,,,0.09,,2013-02-09 13:02:00,
2013-02-09 08:11:00,27.0,26.0,30.18,North,0,0.0,0.0,94,0.00,,,0.09,,2013-02-09 13:11:00,
2013-02-09 08:22:00,27.0,26.0,30.20,North,0,0.0,0.0,94,0.00,,,0.08,,2013-02-09 13:22:00,
2013-02-09 08:32:00,28.0,27.0,30.21,North,0,0.0,0.0,95,0.00,,,0.07,,2013-02-09 13:32:00,
2013-02-09 08:42:00,28.0,27.0,30.21,North,0,0.0,0.0,95,0.00,,,0.07,,2013-02-09 13:42:00,
2013-02-09 08:52:00,31.0,28.0,30.22,North,0,0.0,2.0,90,0.00,,,0.05,,2013-02-09 13:52:00,
2013-02-09 09:01:00,34.0,29.0,30.22,West,264,1.0,4.0,83,0.00,,,0.04,,2013-02-09 14:01:00,
2013-02-09 09:11:00,34.0,29.0,30.22,West,264,1.0,4.0,83,0.00,,,0.04,,2013-02-09 14:11:00,
2013-02-09 09:21:00,37.0,29.0,30.22,NW,310,1.0,4.0,73,0.00,,,0.04,,2013-02-09 14:21:00,
2013-02-09 09:32:00,39.0,26.0,30.23,North,352,3.0,5.0,60,0.00,,,0.03,,2013-02-09 14:32:00,
2013-02-09 09:42:00,39.0,26.0,30.23,North,352,3.0,5.0,60,0.00,,,0.03,,2013-02-09 14:42:00,
2013-02-09 09:52:00,39.0,26.0,30.23,North,352,3.0,5.0,60,0.00,,,0.03,,2013-02-09 14:52:00,
2013-02-09 10:02:00,39.0,26.0,30.23,North,352,3.0,5.0,60,0.00,,,0.03,,2013-02-09 15:02:00,
2013-02-09 10:11:00,39.0,26.0,30.23,North,352,3.0,5.0,60,0.00,,,0.03,,2013-02-09 15:11:00,
2013-02-09 10:22:00,42.0,25.0,30.24,NNW,331,2.0,6.0,51,0.00,,,0.01,,2013-02-09 15:22:00,
2013-02-09 10:32:00,43.0,25.0,30.24,NW,311,1.0,9.0,48,0.00,,,0.01,,2013-02-09 15:32:00,
2013-02-09 10:42:00,43.0,25.0,30.24,NW,311,1.0,9.0,48,0.00,,,0.01,,2013-02-09 15:42:00,
2013-02-09 10:51:00,44.0,25.0,30.25,NNE,28,1.0,8.0,46,0.00,,,0.01,,2013-02-09 15:51:00,
2013-02-09 11:01:00,44.0,24.0,30.25,WNW,300,2.0,7.0,45,0.00,,,0.00,,2013-02-09 16:01:00,
2013-02-09 11:11:00,44.0,24.0,30.25,WNW,300,2.0,7.0,45,0.00,,,0.00,,2013-02-09 16:11:00,
2013-02-09 11:22:00,44.0,24.0,30.25,WNW,300,2.0,7.0,45,0.00,,,0.00,,2013-02-09 16:22:00,
2013-02-09 11:31:00,45.0,22.0,30.25,NW,306,2.0,8.0,40,0.00,,,0.00,,2013-02-09 16:31:00,
2013-02-09 11:42:00,45.0,22.0,30.25,NW,306,2.0,8.0,40,0.00,,,0.00,,2013-02-09 16:42:00,
2013-02-09 11:52:00,46.0,22.0,30.26,North,353,5.0,10.0,38,0.00,,,0.00,,2013-02-09 16:52:00,
2013-02-09 12:01:00,46.0,22.0,30.26,North,353,5.0,10.0,38,0.00,,,0.00,,2013-02-09 17:01:00,
2013-02-09 12:11:00,46.0,22.0,30.26,North,353,5.0,10.0,38,0.00,,,0.00,,2013-02-09 17:11:00,
2013-02-09 12:21:00,46.0,22.0,30.26,North,353,5.0,10.0,38,0.00,,,0.00,,2013-02-09 17:21:00,
2013-02-09 12:32:00,47.0,22.0,30.25,NNW,336,1.0,9.0,37,0.00,,,0.00,,2013-02-09 17:32:00,
2013-02-09 12:42:00,47.0,22.0,30.25,NNW,336,1.0,9.0,37,0.00,,,0.00,,2013-02-09 17:42:00,
2013-02-09 12:52:00,48.0,22.0,30.24,North,0,0.0,5.0,36,0.00,,,0.00,,2013-02-09 17:52:00,
2013-02-09 13:02:00,48.0,22.0,30.24,North,0,0.0,5.0,36,0.00,,,0.00,,2013-02-09 18:02:00,
2013-02-09 13:12:00,48.0,22.0,30.24,North,0,0.0,5.0,36,0.00,,,0.00,,2013-02-09 18:12:00,
2013-02-09 13:23:00,49.0,22.0,30.24,West,263,1.0,7.0,34,0.00,,,0.00,,2013-02-09 18:23:00,
2013-02-09 13:32:00,50.0,22.0,30.23,North,0,0.0,5.0,33,0.00,,,0.00,,2013-02-09 18:32:00,
2013-02-09 13:42:00,50.0,22.0,30.23,North,0,0.0,5.0,33,0.00,,,0.00,,2013-02-09 18:42:00,
2013-02-09 13:52:00,50.0,22.0,30.23,North,0,0.0,5.0,33,0.00,,,0.00,,2013-02-09 18:52:00,
2013-02-09 14:02:00,50.0,22.0,30.23,North,0,0.0,5.0,33,0.00,,,0.00,,2013-02-09 19:02:00,
2013-02-09 14:11:00,50.0,22.0,30.23,North,0,0.0,5.0,33,0.00,,,0.00,,2013-02-09 19:11:00,
2013-02-09 14:22:00,51.0,21.0,30.23,WNW,300,3.0,7.0,30,0.00,,,0.00,,2013-02-09 19:22:00,
2013-02-09 14:32:00,51.0,21.0,30.23,WNW,300,3.0,7.0,30,0.00,,,0.00,,2013-02-09 19:32:00,
2013-02-09 14:42:00,51.0,21.0,30.23,WNW,300,3.0,7.0,30,0.00,,,0.00,,2013-02-09 19:42:00,
2013-02-09 14:52:00,52.0,19.0,30.22,NW,319,4.0,8.0,27,0.00,,,0.00,,2013-02-09 19:52:00,
2013-02-09 15:02:00,52.0,22.0,30.22,NW,323,1.0,7.0,30,0.00,,,0.00,,2013-02-09 20:02:00,
2013-02-09 15:11:00,52.0,22.0,30.22,NW,323,1.0,7.0,30,0.00,,,0.00,,2013-02-09 20:11:00,
2013-02-09 15:21:00,52.0,22.0,30.22,NW,323,1.0,7.0,30,0.00,,,0.00,,2013-02-09 20:21:00,
2013-02-09 15:32:00,52.0,22.0,30.22,NW,323,1.0,7.0,30,0.00,,,0.00,,2013-02-09 20:32:00,
2013-02-09 15:42:00,52.0,22.0,30.22,NW,323,1.0,7.0,30,0.00,,,0.00,,2013-02-09 20:42:00,
2013-02-09 15:52:00,53.0,19.0,30.22,North,0,0.0,4.0,26,0.00,,,0.00,,2013-02-09 20:52:00,
2013-02-09 16:02:00,53.0,19.0,30.22,North,0,0.0,4.0,26,0.00,,,0.00,,2013-02-09 21:02:00,
2013-02-09 16:12:00,53.0,19.0,30.22,North,0,0.0,4.0,26,0.00,,,0.00,,2013-02-09 21:12:00,
2013-02-09 16:21:00,52.0,18.0,30.23,NNE,16,1.0,7.0,26,0.00,,,0.00,,2013-02-09 21:21:00,
2013-02-09 16:32:00,52.0,20.0,30.23,North,0,0.0,3.0,28,0.00,,,0.00,,2013-02-09 21:32:00,
2013-02-09 16:42:00,52.0,20.0,30.23,North,0,0.0,3.0,28,0.00,,,0.00,,2013-02-09 21:42:00,
2013-02-09 16:52:00,52.0,20.0,30.23,North,0,0.0,3.0,28,0.00,,,0.00,,2013-02-09 21:52:00,
2013-02-09 17:01:00,51.0,18.0,30.23,WNW,285,1.0,6.0,27,0.00,,,0.00,,2013-02-09 22:01:00,
2013-02-09 17:11:00,51.0,18.0,30.23,WNW,285,1.0,6.0,27,0.00,,,0.00,,2013-02-09 22:11:00,
2013-02-09 17:22:00,51.0,18.0,30.23,WNW,285,1.0,6.0,27,0.00,,,0.00,,2013-02-09 22:22:00,
2013-02-09 17:32:00,49.0,20.0,30.25,North,0,0.0,0.0,31,0.00,,,0.00,,2013-02-09 22:32:00,
2013-02-09 17:42:00,49.0,20.0,30.25,North,0,0.0,0.0,31,0.00,,,0.00,,2013-02-09 22:42:00,
2013-02-09 17:52:00,48.0,22.0,30.26,North,0,0.0,0.0,35,0.00,,,0.00,,2013-02-09 22:52:00,
2013-02-09 18:02:00,47.0,26.0,30.25,North,0,0.0,0.0,43,0.00,,,0.00,,2013-02-09 23:02:00,
2013-02-09 18:11:00,47.0,26.0,30.25,North,0,0.0,0.0,43,0.00,,,0.00,,2013-02-09 23:11:00,
2013-02-09 18:21:00,45.0,27.0,30.26,North,0,0.0,0.0,49,0.00,,,0.00,,2013-02-09 23:21:00,
2013-02-09 18:32:00,41.0,27.0,30.26,North,0,0.0,0.0,56,0.00,,,0.00,,2013-02-09 23:32:00,
2013-02-09 18:42:00,41.0,27.0,30.26,North,0,0.0,0.0,56,0.00,,,0.00,,2013-02-09 23:42:00,
2013-02-09 18:52:00,40.0,28.0,30.27,North,0,0.0,0.0,62,0.00,,,0.00,,2013-02-09 23:52:00,
2013-02-09 19:02:00,39.0,29.0,30.27,North,0,0.0,0.0,67,0.00,,,0.00,,2013-02-10 00:02:00,
2013-02-09 19:12:00,39.0,29.0,30.27,North,0,0.0,0.0,67,0.00,,,0.00,,2013-02-10 00:12:00,
2013-02-09 19:22:00,37.0,27.0,30.27,North,0,0.0,0.0,67,0.00,,,0.00,,2013-02-10 00:22:00,
2013-02-09 19:32:00,35.0,27.0,30.28,North,0,0.0,0.0,71,0.00,,,0.00,,2013-02-10 00:32:00,
2013-02-09 19:42:00,35.0,27.0,30.28,North,0,0.0,0.0,71,0.00,,,0.00,,2013-02-10 00:42:00,
2013-02-09 19:51:00,35.0,27.0,30.28,North,0,0.0,0.0,71,0.00,,,0.00,,2013-02-10 00:51:00,
2013-02-09 20:01:00,34.0,27.0,30.28,North,0,0.0,0.0,75,0.00,,,0.00,,2013-02-10 01:01:00,
2013-02-09 20:12:00,34.0,27.0,30.28,North,0,0.0,0.0,75,0.00,,,0.00,,2013-02-10 01:12:00,
2013-02-09 20:22:00,33.0,26.0,30.29,North,0,0.0,0.0,74,0.00,,,0.00,,2013-02-10 01:22:00,
2013-02-09 20:32:00,33.0,26.0,30.30,North,0,0.0,0.0,74,0.00,,,0.00,,2013-02-10 01:32:00,
2013-02-09 20:42:00,33.0,26.0,30.30,North,0,0.0,0.0,74,0.00,,,0.00,,2013-02-10 01:42:00,
2013-02-09 20:51:00,32.0,25.0,30.30,North,0,0.0,0.0,76,0.00,,,0.00,,2013-02-10 01:51:00,
2013-02-09 21:01:00,31.0,24.0,30.31,North,0,0.0,0.0,76,0.00,,,0.00,,2013-02-10 02:01:00,
2013-02-09 21:11:00,31.0,24.0,30.31,North,0,0.0,0.0,76,0.00,,,0.00,,2013-02-10 02:11:00,
2013-02-09 21:22:00,30.0,24.0,30.31,North,0,0.0,0.0,79,0.00,,,0.00,,2013-02-10 02:22:00,
2013-02-09 21:32:00,30.0,25.0,30.32,North,0,0.0,0.0,83,0.00,,,0.00,,2013-02-10 02:32:00,
2013-02-09 21:42:00,30.0,25.0,30.32,North,0,0.0,0.0,83,0.00,,,0.00,,2013-02-10 02:42:00,
2013-02-09 21:52:00,30.0,25.0,30.32,North,0,0.0,0.0,83,0.00,,,0.00,,2013-02-10 02:52:00,
2013-02-09 22:02:00,29.0,25.0,30.32,North,0,0.0,0.0,83,0.00,,,0.00,,2013-02-10 03:02:00,
2013-02-09 22:11:00,29.0,25.0,30.32,North,0,0.0,0.0,83,0.00,,,0.00,,2013-02-10 03:11:00,
2013-02-09 22:22:00,29.0,25.0,30.32,North,0,0.0,0.0,84,0.00,,,0.00,,2013-02-10 03:22:00,
2013-02-09 22:32:00,29.0,25.0,30.32,North,0,0.0,0.0,85,0.00,,,0.00,,2013-02-10 03:32:00,
2013-02-09 22:42:00,29.0,25.0,30.32,North,0,0.0,0.0,85,0.00,,,0.00,,2013-02-10 03:42:00,
2013-02-09 22:51:00,29.0,25.0,30.32,North,0,0.0,0.0,85,0.00,,,0.00,,2013-02-10 03:51:00,
2013-02-09 23:01:00,29.0,25.0,30.32,North,0,0.0,0.0,85,0.00,,,0.00,,2013-02-10 04:01:00,
2013-02-09 23:22:00,27.0,24.0,30.33,North,0,0.0,0.0,88,0.00,,,0.00,,2013-02-10 04:22:00,
2013-02-09 23:32:00,27.0,24.0,30.33,North,0,0.0,0.0,89,0.00,,,0.00,,2013-02-10 04:32:00,
2013-02-09 23:42:00,27.0,24.0,30.33,North,0,0.0,0.0,89,0.00,,,0.00,,2013-02-10 04:42:00,
2013-02-09 23:52:00,27.0,24.0,30.33,North,0,0.0,0.0,89,0.00,,,0.00,,2013-02-10 04:52:00,